Regional Weather Roundup
Issued by NWS

Home | Current Version | Previous Version | Graphics & Text | Print | Product List | Glossary Off
Versions: 1 2 3 4 5 6 7 8 9 10 11 12 13 14 15 16 17 18 19 20 21 22 23 24 25 26 27 28 29 30 31 32 33 34 35 36 37 38 39 40 41 42 43 44 45 46 47 48 49 50

000
ASUS43 KMKX 040111
RWRWI

WISCONSIN REGIONAL WEATHER ROUNDUP
NATIONAL WEATHER SERVICE MILWAUKEE/SULLIVAN WI
800 PM CDT MON AUG 03 2015

NOTE: "FAIR" INDICATES FEW OR NO CLOUDS BELOW 12,000 FEET WITH NO
SIGNIFICANT WEATHER AND/OR OBSTRUCTIONS TO VISIBILITY.

WIZ001-002-006>008-014>016-023>028-040200-
NORTHWEST WISCONSIN

CITY           SKY/WX    TMP DP  RH WIND       PRES   REMARKS
SUPERIOR ARPT  CLOUDY    68  55  62 NW12      29.86R
ASHLAND        MOCLDY    65  55  70 N7        29.86R
HAYWARD        CLOUDY    69  53  56 CALM      29.88R
SIREN          CLOUDY    69  55  61 CALM      29.89R
CUMBERLAND     PTCLDY    64  52  63 NW3       29.89R
RICE LAKE      CLEAR     68  54  62 CALM      29.90R
CHETEK         CLEAR     70  53  54 CALM      29.88S
LADYSMITH      CLOUDY    69  54  58 W5        29.90R
EAU CLAIRE     CLEAR     71  51  49 NW3       29.88R
MENOMONIE      CLEAR     73  50  45 W5        29.88S
NEW RICHMOND   PTCLDY    70  52  54 W3        29.89S
OSCEOLA        MOCLDY    72  54  52 W3        29.91S
$$

WIZ003>005-009-010-017-018-040200-
NORTH CENTRAL WISCONSIN

CITY           SKY/WX    TMP DP  RH WIND       PRES   REMARKS
MANITOWISH WTR RAIN      62  56  79 NW5       29.86S
ARBOR VITAE    MOCLDY    64  56  73 W3        29.86S
WOODRUFF       MOCLDY    64  56  73 W3        29.86S
RHINELANDER    PTCLDY    63  54  72 W6        29.88R
EAGLE RIVER    CLOUDY    64  50  61 W7        29.85S
LAND O LAKES   LGT RAIN  63  53  72 NW6       29.86R
PHILLIPS       CLOUDY    65  55  72 CALM      29.87S
TOMAHAWK       MOCLDY    64  54  71 W3        29.88S
MEDFORD        PTCLDY    64  55  71 W5        29.89S
MERRILL        NOT AVBL
$$

WIZ029-030-035-036-043>047-040200-
CENTRAL WISCONSIN

CITY           SKY/WX    TMP DP  RH WIND       PRES   REMARKS
WAUSAU         CLOUDY    70  53  54 NW8       29.86R
MOSINEE        MOCLDY    68  52  56 NW9       29.89R
MARSHFIELD     CLOUDY    69  52  54 NW6       29.89R
STEVENS POINT  CLOUDY    68  50  52 NW8       29.88R
WAUPACA        MOCLDY    74  53  46 NW7       29.86R
WAUTOMA        CLEAR     74  48  39 NW8       29.87R
WISC RAPIDS    PTCLDY    71  51  49 N8        29.89R
CAMP DOUGLAS   PTCLDY    68  54  60 NW6       29.88R
$$

WIZ011>013-019>022-031-037>040-048>050-040200-
NORTHEAST WISCONSIN

CITY           SKY/WX    TMP DP  RH WIND       PRES   REMARKS
ANTIGO         CLOUDY    65  54  66 W10       29.87S
SHAWANO        CLOUDY    70  55  59 W6        29.85R
OCONTO         CLOUDY    68  56  64 CALM      29.82R
STURGEON BAY   MOCLDY    68  54  60 NW6       29.85R
GREEN BAY      CLOUDY    69  56  62 NW8       29.84R
MANITOWOC      CLOUDY    72  54  53 MISG      29.83R
APPLETON       MOCLDY    70  48  46 NW17      29.86R
CLINTONVILLE   CLOUDY    70  54  56 NW8       29.85R
OSHKOSH        PTCLDY    72  54  53 NW6       29.84R
$$

WIZ032>034-041-042-053>061-040200-
SOUTHWEST WISCONSIN

CITY           SKY/WX    TMP DP  RH WIND       PRES   REMARKS
LA CROSSE      PTCLDY    75  52  44 W7        29.88R
SPARTA         MOCLDY    73  47  39 W5        29.90R
VIROQUA        CLEAR     69  52  54 NW5       29.91R
BOSCOBEL       CLEAR     75  53  46 W5        29.89R
PRAIRIE DU CHI CLEAR     75  49  40 W6        29.89R
PLATTEVILLE    CLEAR     72  54  52 W6        29.91R
$$

WIZ056-057-062-063-064-067-068-040200-
SOUTH CENTRAL WISCONSIN

CITY           SKY/WX    TMP DP  RH WIND       PRES   REMARKS
REEDSBURG      CLEAR     73  51  46 NW6       29.88S
BARABOO/DELLS  CLEAR     73  47  39 W7        29.89R
LONE ROCK      PTCLDY    73  53  49 NW5       29.89R
MINERAL POINT  CLEAR     72  52  49 W3        29.91R
MADISON        PTCLDY    74  52  46 NW3       29.87R
MIDDLETON      CLEAR     72  49  45 W5        29.88S
WATERTOWN      CLEAR     72  53  51 W5        29.86R
MONROE         CLEAR     72  52  49 W7        29.89R
JANESVILLE     PTCLDY    73  52  46 W5        29.87
$$

WIZ051-052-058>065-066-070>072-040200-
SOUTHEAST WISCONSIN

CITY           SKY/WX    TMP DP  RH WIND       PRES   REMARKS
MILWAUKEE      PTCLDY    78  47  33 NW10      29.85R
WAUKESHA       CLEAR     75  48  38 W17       29.87R
MILWAUKEE/TIMM CLEAR     75  45  33 NW7       29.84S
RACINE         CLEAR     75  51  43 W5        29.87R
BURLINGTON     PTCLDY    71  52  51 W5        29.87R
KENOSHA        PTCLDY    69  57  65 W5        29.86R
FOND DU LAC    PTCLDY    72  55  55 NW6       29.85R
SHEBOYGAN      PTCLDY    71  54  54 NW6       29.84R
WEST BEND      CLEAR     72  46  40 W3        29.85R
JUNEAU         CLEAR     70  53  55 W5        29.87R
$$

LSZ147-162-040200-
LAKE SUPERIOR

STATION/POSITION TIME  TEMP    WIND        PRES    WAVE
                       AIR SEA DIR/SP/G            HT/PER
                 (UTC) (F)     (DEG/KT/KT) (MB)    (FT/S)
W MID LAKE BUOY  0050   58 56  260/ 16/ 17 1008.7R   2/ 3
DEVILS ISLAND    0100   60     280/ 12/ 13 1010.4S
PORT WING        0000   64     270/  2/  3 1010.8S
SAXON HARBOR     0040   64     320/  2     1010.5R
$$

LMZ867-665-643>646-040200-
LAKE MICHIGAN

STATION/POSITION TIME  TEMP    WIND        PRES    WAVE
                       AIR SEA DIR/SP/G            HT/PER
                 (UTC) (F)     (DEG/KT/KT) (MB)    (FT/S)
CHAMBERS ISLAND  0000   71     320/  5/  9 1009.1R
S GREEN BAY BUOY 0100   69 70  310/  6/  6 1011.5R
N MID LAKE BUOY  0050   66 68  110/  2/  2 1009.0R   1/ 4
NORTHPORT PIER   0000   71     290/  3/  5 1008.8S
SISTER BAY       0048   71     350/ 18/ 20   N/A
ALGOMA LAKESHORE 0012           CALM  /  3   N/A
KEWAUNEE LAKESHO 0000   72     300/  5/ 10 1009.1R
SHEBOYGAN LAKESH 0100   75     320/  6/  7 1010.3R
PORT WASHINGTON  0040   78     310/  2/  5 1010.8R
ATWATER BUOY     0100   67 50  280/  8/ 10 1012.0R
MILWAUKEE LAKESH 0000   78     280/ 10/ 15   N/A
KENOSHA   LAKESH 0100   77     280/  6/  8 1010.5R
$$

TC  - TEMPERATURE IN CELSIUS
VSB - VISIBILITY IN STATUTE MILES
WCI - WIND CHILL INDEX
HX  - HEAT INDEX



USA.gov is the U.S. government's official web portal to all federal, state and local government web resources and services.